Theta_e
300 299 298 300 300 305 308 309 309 309 310 310 310 309 308 300 307 308 304 305 306 307 303 303 302 302 302 303 304 304 303 303 304 304 304 304 303 305 305 306 305 305 304 304 305
299 298 298 298 298 301 308 308 308 309 309 309 308 309 302 303 307 304 301 302 306 307 304 303 303 302 303 303 303 304 303 303 303 303 302 302 302 301 302 302 303 302 303 304 304
299 298 298 298 298 303 308 307 306 308 308 307 307 303 300 306 308 304 300 302 305 306 302 302 302 303 303 303 303 303 303 303 303 302 302 302 301 301 301 301 301 301 301 302 302
299 298 298 298 297 298 305 301 304 307 305 304 301 300 301 308 306 304 301 302 302 302 301 301 302 302 303 303 303 302 302 302 302 302 302 301 301 301 301 301 301 301 301 301 301
299 299 298 298 297 298 301 299 305 302 302 301 299 300 305 305 303 303 301 299 300 300 300 301 301 302 302 302 302 301 302 302 302 301 301 301 301 300 300 300 301 301 302 301 301
299 299 299 298 298 297 297 297 300 301 300 299 300 301 306 304 302 302 299 299 300 299 299 300 301 301 301 301 302 302 302 302 302 302 301 302 301 301 301 302 302 302 302 302 301
300 299 299 298 298 297 296 297 298 300 300 300 301 305 304 301 301 299 299 299 299 299 299 300 300 301 302 301 302 302 302 302 302 302 302 302 301 302 301 302 302 301 301 301 302
300 299 299 299 298 297 296 297 298 300 299 300 300 305 303 299 299 299 299 299 299 300 300 300 301 301 301 302 302 303 302 303 304 303 303 302 303 303 303 302 302 302 301 302 302
300 300 299 299 298 297 296 297 300 299 299 301 306 304 302 299 299 299 299 299 299 300 301 300 301 302 302 303 304 304 303 302 301 302 302 304 304 303 302 302 302 301 301 302 302
300 300 299 299 298 297 298 297 298 303 302 300 301 304 301 300 298 299 298 299 300 301 302 302 302 303 304 302 302 302 302 302 301 301 301 302 303 303 303 303 300 299 298 299 299
300 300 300 299 298 297 300 304 304 307 301 302 300 301 300 299 299 299 298 300 302 303 300 301 304 302 300 301 302 301 302 300 299 300 301 304 304 302 302 300 297 295 295 295 296
300 300 300 299 297 298 300 303 302 301 304 300 300 300 299 298 299 299 298 300 301 301 300 304 301 300 300 301 301 301 300 299 299 299 298 298 298 297 300 295 294 293 292 293 294
301 300 300 299 298 300 298 300 300 300 307 300 299 299 298 298 299 299 299 299 301 300 300 301 300 299 299 300 300 299 299 300 297 296 297 296 300 301 296 293 292 291 290 290 291
301 301 300 299 303 299 299 298 300 301 314 305 300 299 299 300 300 299 299 298 300 300 299 301 300 299 299 300 299 298 297 296 297 298 298 299 302 295 293 291 290 289 288 287 289
301 301 301 300 300 300 296 298 300 302 321 301 300 298 300 299 299 300 300 300 299 300 300 302 300 299 298 298 298 296 295 296 297 299 299 300 302 294 290 289 288 287 286 286 291
301 301 301 303 302 298 297 299 302 315 311 301 300 299 300 300 300 300 301 299 299 300 301 301 300 299 298 298 297 295 295 299 302 302 302 304 303 293 290 288 286 286 285 286 292
301 301 301 299 303 296 298 302 313 308 306 300 298 299 299 299 300 301 301 299 299 298 300 300 300 299 298 297 296 294 294 298 301 304 304 301 296 291 288 286 285 285 284 286 289
302 301 301 299 298 295 300 309 308 303 302 298 299 299 300 298 300 300 301 300 298 298 299 298 298 298 298 296 293 294 292 291 296 301 301 299 296 293 287 285 284 284 285 285 287
302 302 301 302 295 296 304 308 308 305 297 298 302 303 305 301 300 301 300 299 298 297 295 299 298 298 297 297 292 292 292 293 295 297 299 299 294 295 287 284 283 283 284 284 285
301 302 303 300 293 298 306 307 299 296 297 299 303 299 301 300 301 301 301 299 298 298 297 297 296 299 298 295 293 293 292 293 293 290 296 300 291 287 284 282 281 281 282 283 284
301 303 301 293 296 304 309 304 296 295 297 299 299 300 300 299 298 300 301 300 297 298 297 299 297 298 297 291 290 291 290 293 293 292 295 295 290 284 282 281 280 280 281 282 283
302 303 297 293 303 300 303 297 295 295 296 298 298 298 298 297 298 300 300 299 297 298 298 298 295 300 294 293 294 292 289 289 289 290 289 290 290 283 280 280 279 279 280 281 282
304 307 297 299 306 303 295 296 296 296 297 297 298 298 295 295 296 297 299 297 297 297 296 295 300 298 296 296 295 291 291 289 290 292 292 293 293 284 281 279 278 278 279 279 280
303 304 300 300 302 302 300 300 296 295 296 297 298 297 294 291 294 293 298 298 297 297 296 296 298 293 294 293 294 290 289 289 290 289 286 288 286 284 280 278 277 277 278 278 279
303 301 297 305 300 301 302 298 298 296 296 296 297 297 296 293 291 290 297 298 297 297 297 295 297 291 291 291 294 293 285 287 287 287 289 286 287 283 279 277 277 276 277 277 278
300 299 294 298 297 299 299 298 298 296 296 296 295 298 294 293 296 293 297 298 298 296 297 296 297 291 291 291 288 292 290 288 287 284 287 288 286 283 280 277 276 276 276 276 277
297 295 303 298 299 302 304 299 297 296 296 296 296 296 292 293 295 296 295 295 295 293 296 295 293 292 299 292 293 294 290 284 284 283 284 284 285 282 279 276 276 275 276 275 276
Wind_Speed
13 16 17 18 19 20 20 20 20 19 18 18 16 15 11 7 4 2 9 6 11 16 20 19 17 16 18 8 6 5 4 10 15 14 14 9 12 4 2 4 4 7 10 13 31
14 16 18 20 21 22 21 22 20 19 19 17 15 10 8 2 1 9 6 11 12 14 16 17 13 15 6 8 3 6 6 8 7 9 8 8 11 10 8 7 9 10 12 20 20
14 16 18 20 22 23 23 21 20 20 19 15 10 7 5 2 4 5 10 15 13 13 14 14 13 10 7 8 6 5 13 15 14 15 15 14 10 9 13 15 10 10 10 9 10
14 17 19 21 23 25 23 21 21 22 15 9 6 5 2 1 2 4 15 17 15 12 11 10 8 8 8 10 10 11 13 14 14 14 14 13 15 13 14 16 13 14 13 12 13
15 17 20 23 24 26 22 22 23 15 7 5 5 3 2 3 5 8 19 17 12 11 10 9 9 9 8 10 15 16 16 13 12 14 14 14 14 15 19 15 15 14 16 15 13
15 17 20 23 25 26 22 26 18 7 4 6 3 1 4 2 6 11 16 15 14 12 14 14 8 9 10 11 10 12 15 15 15 16 16 17 19 14 15 17 17 16 15 13 13
15 18 21 24 26 26 23 24 6 4 5 5 3 2 1 5 7 14 17 16 15 17 11 13 11 6 6 10 9 10 16 16 18 18 10 10 12 14 17 17 17 11 9 10 9
15 18 21 24 27 23 23 14 6 3 4 3 2 4 3 2 12 12 19 22 19 8 4 5 6 7 8 8 11 16 13 11 9 2 7 3 13 16 13 8 11 11 10 13 12
15 18 20 24 27 19 23 6 4 5 3 3 3 2 4 2 20 11 19 22 15 4 2 3 3 5 5 6 8 4 11 17 15 15 15 7 13 12 12 14 13 9 10 11 10
15 17 20 24 28 16 17 6 3 6 5 3 3 2 3 9 14 13 28 27 3 7 4 6 2 4 2 5 7 15 14 12 19 16 20 18 17 15 14 10 10 12 14 16 16
15 17 20 23 25 15 17 5 2 2 9 5 3 3 6 15 5 21 30 15 8 2 7 2 3 6 11 9 11 15 16 20 18 17 13 12 12 8 12 5 12 14 14 16 17
15 17 19 22 18 14 10 4 3 2 2 2 1 3 3 9 6 16 27 9 7 8 12 1 5 10 12 13 14 15 21 20 15 11 12 11 17 15 8 17 16 16 17 18 18
15 16 19 21 10 8 9 5 2 1 2 3 2 2 3 7 5 13 14 8 8 9 10 2 6 12 14 14 16 17 18 14 19 21 18 12 4 10 11 15 17 17 18 19 20
14 15 18 21 3 7 3 8 1 1 2 3 0 3 4 2 2 14 12 3 6 6 6 5 8 14 13 13 19 18 15 20 20 9 5 7 3 15 14 17 21 21 22 23 25
14 15 16 13 7 2 6 4 1 3 2 4 2 2 1 7 7 11 12 3 5 8 1 3 10 12 8 15 22 7 24 19 18 8 1 1 1 6 13 18 24 22 25 25 25
13 14 15 6 3 2 4 2 2 3 2 3 2 5 7 8 4 9 4 11 1 5 4 6 6 3 7 17 12 26 17 10 2 3 0 9 1 8 9 15 21 22 26 26 25
13 13 14 7 1 6 3 4 4 5 3 7 4 6 6 6 5 9 7 12 8 7 7 11 4 6 10 16 6 19 16 4 3 3 3 6 9 6 14 14 15 20 22 23 22
13 13 12 6 3 1 1 1 6 0 2 2 3 7 3 6 4 12 6 5 10 6 4 6 7 6 6 5 10 10 5 3 4 5 4 8 4 5 16 11 13 14 16 21 27
12 8 4 4 4 3 0 5 4 2 2 3 3 2 2 2 4 7 4 6 6 7 4 6 5 7 8 5 16 9 5 8 4 5 3 3 5 4 23 16 18 21 25 26 24
6 5 3 3 0 3 3 3 3 2 1 1 4 2 3 5 6 7 7 4 6 9 3 2 6 5 3 7 9 5 6 3 3 5 6 3 3 4 22 23 23 24 23 22 22
3 2 1 2 3 2 2 3 2 2 1 1 3 2 2 4 4 4 6 1 7 8 5 1 2 6 6 6 8 8 5 4 2 2 2 3 2 3 10 14 17 16 18 18 19
1 1 2 3 3 2 2 4 1 4 3 2 2 0 1 2 3 2 3 4 9 7 5 2 2 4 3 5 5 9 7 4 2 6 1 3 1 2 6 10 12 15 16 16 16
2 2 1 2 2 2 0 1 0 3 4 3 3 3 2 1 1 2 4 4 6 7 4 4 3 4 4 2 3 4 10 9 4 2 3 3 3 7 12 12 12 12 13 13 15
0 1 2 3 1 5 5 3 3 1 2 2 2 4 2 1 2 4 3 1 3 4 2 2 1 3 4 6 1 3 7 12 5 2 6 1 10 13 14 13 13 13 13 12 13
1 2 1 2 2 3 2 6 4 4 2 3 2 5 5 2 2 3 4 4 3 5 2 2 2 1 5 3 2 2 1 6 5 4 2 7 10 9 8 8 10 11 11 13 15
3 3 1 1 1 5 2 5 7 4 6 3 3 4 4 5 5 6 1 1 2 6 5 1 2 3 4 5 4 5 4 2 4 5 4 2 2 10 6 6 11 10 12 14 13
4 3 1 1 2 3 3 5 6 8 1 3 5 5 2 6 3 3 3 2 2 1 3 4 3 3 4 4 3 4 2 2 0 1 3 5 4 7 9 11 12 12 12 12 13
Wind_Direction
357 359 356 351 349 347 344 340 338 333 331 330 329 325 331 356 41 20 49 352 341 340 339 330 335 338 318 265 236 279 253 244 251 257 272 312 317 152 99 236 249 285 289 299 301
355 358 355 349 350 345 343 338 336 331 328 329 326 323 333 26 89 66 14 345 337 329 332 335 330 328 312 275 253 220 239 248 266 293 316 301 313 320 318 273 257 254 264 278 283
351 356 349 347 350 345 340 339 336 328 327 327 330 330 341 127 243 60 0 346 326 319 317 309 312 316 299 289 267 240 251 287 313 326 331 321 311 313 304 278 276 269 280 281 313
350 350 345 345 350 347 341 339 335 327 329 340 345 359 101 271 16 15 347 342 321 311 309 319 322 312 293 297 295 282 283 288 299 316 319 305 312 296 287 285 298 301 294 290 289
345 345 345 343 351 348 341 339 334 337 351 0 352 25 357 198 50 351 342 338 336 338 315 317 306 304 280 314 314 283 277 285 310 313 307 301 285 280 275 278 275 277 275 275 277
342 341 342 344 349 348 341 341 335 353 4 354 358 64 265 115 354 341 337 333 326 313 317 302 290 304 286 272 268 302 302 298 292 285 283 278 276 268 273 282 277 273 275 275 268
337 339 340 344 346 348 341 343 2 4 339 2 14 2 61 75 359 346 343 330 323 314 298 305 297 275 309 306 295 303 288 285 276 265 248 276 287 270 268 268 257 270 270 267 262
333 337 340 342 345 346 341 347 350 348 330 18 47 304 59 52 356 1 350 336 332 326 323 312 298 273 267 281 290 272 265 276 303 182 273 321 288 282 289 349 334 320 312 302 299
331 337 338 341 345 345 343 351 357 351 353 47 347 305 86 324 352 336 350 331 326 281 315 270 285 268 304 275 299 16 323 312 308 317 320 301 294 274 302 307 291 285 282 275 271
330 335 337 341 344 345 348 335 348 22 340 298 266 243 104 351 334 326 346 337 305 289 203 228 249 267 217 335 312 311 304 301 301 311 297 291 286 269 274 354 14 10 359 355 350
328 333 337 341 346 353 0 330 265 167 40 58 29 313 348 336 308 9 350 333 323 217 353 316 297 0 331 321 299 293 307 307 304 302 2 326 322 311 26 32 27 10 355 346 336
323 331 336 343 349 8 25 36 53 292 137 92 11 266 355 326 330 11 359 22 349 11 341 56 30 351 318 295 314 321 313 305 302 335 319 305 305 300 348 23 10 7 356 339 330
320 330 333 345 355 22 53 30 329 228 261 120 71 334 326 322 19 8 2 342 342 355 348 346 334 331 335 334 327 320 302 315 312 317 288 251 9 53 36 22 11 9 351 339 325
317 327 334 345 33 353 57 339 322 240 96 349 109 35 306 140 172 0 12 22 16 337 344 290 328 346 340 318 340 315 336 310 301 319 296 37 141 33 12 3 6 359 346 336 324
313 322 334 349 331 21 320 332 152 266 338 350 44 329 316 63 313 344 23 336 2 323 15 317 319 332 320 336 331 309 313 301 289 261 256 122 138 9 20 358 352 348 340 335 330
308 317 332 347 321 319 350 124 234 58 320 54 64 12 1 36 18 336 357 15 85 292 278 281 277 350 352 332 320 335 314 298 202 124 266 41 158 31 15 355 341 343 340 338 340
302 312 321 322 325 326 95 236 38 80 332 338 337 350 320 349 335 348 347 42 32 354 10 317 78 14 10 334 360 345 353 356 20 29 44 14 63 65 16 6 346 339 332 339 348
298 310 307 269 288 9 149 252 68 315 278 61 348 313 38 6 344 332 353 4 46 12 295 353 343 26 342 47 330 346 37 55 346 346 321 40 20 122 35 7 351 344 343 351 4
305 317 296 267 324 122 250 54 171 213 286 3 334 335 1 23 357 330 75 5 30 51 42 347 293 346 47 21 18 323 29 290 274 211 266 83 25 208 353 354 358 359 2 3 358
311 299 198 259 145 134 74 128 120 52 171 57 58 56 319 336 8 359 9 36 354 35 105 353 296 314 96 7 25 10 337 4 326 17 338 74 88 282 342 340 351 358 1 355 357
303 324 230 329 113 57 112 128 139 119 211 90 113 283 263 332 329 331 334 89 17 3 319 73 179 301 39 31 27 5 17 322 238 92 260 308 259 26 334 344 347 349 355 356 358
263 309 180 154 53 45 98 142 235 143 229 129 121 232 236 67 289 299 316 341 15 357 329 80 285 288 212 200 73 85 351 330 45 321 239 211 278 77 24 2 346 358 354 354 5
193 242 51 126 154 119 237 62 143 157 175 170 148 133 53 205 354 265 315 49 20 25 12 327 336 315 336 269 102 35 358 341 287 276 295 325 36 35 25 2 358 360 359 359 6
98 310 332 43 244 135 148 167 145 353 126 123 99 124 132 235 209 291 291 320 70 18 345 246 303 145 186 222 210 23 342 354 357 58 318 348 295 354 2 2 350 358 2 8 14
89 240 207 190 280 125 115 148 141 172 275 172 191 200 190 178 185 236 250 290 141 347 128 50 247 138 276 237 225 130 352 14 11 343 59 310 316 9 1 1 3 346 5 17 24
151 152 216 118 244 125 175 216 163 157 151 204 178 177 173 194 204 196 130 20 12 331 349 46 289 128 270 240 164 313 74 73 40 342 306 300 300 360 10 28 33 9 16 14 23
162 165 167 166 131 128 210 177 191 141 181 113 173 145 202 243 258 234 281 278 235 122 325 322 338 5 292 181 148 5 316 91 340 269 290 24 306 355 354 22 25 13 14 21 16